Terminal Aerodrome Forecast
Issued by NWS Sterling, VA

Current Version | Previous Version | Graphics & Text | Print | Product List | Glossary On
Versions: 1 2 3 4 5 6 7 8 9 10 11 12 13 14 15 16 17 18 19 20 21 22 23 24 25
000
FTUS41 KLWX 221457 AAB
TAFDCA
TAF AMD
KDCA 221457Z 2215/2312 36008KT P6SM -RA BKN008 OVC025
     FM221600 36008KT P6SM -RA BKN010 OVC025
     FM222100 35008KT 3SM -RA BR BKN008 OVC025
     FM230000 36006KT 3SM BR BKN008 OVC025
     FM230300 35005KT 3SM BR BKN020 OVC025
     FM230400 35005KT 3SM BR BKN015 OVC025
     FM230600 36006KT P6SM SCT025 OVC035=

USA.gov is the U.S. government's official web portal to all federal, state and local government web resources and services.